This is the latest recevied weather packets stored in our database for station/object DL5RDP-9. If no packets are shown the sender has not sent any weather packets the latest 10 day(s).
| Time | Temp. | Humidity | Pressure | Rain* | Wind** | Luminosity | Snow |
|---|---|---|---|---|---|---|---|
| 1777081306 | 26.11° C | 30% | 1022.5 hPa | - | - | - | - |
| 1777080406 | 26.11° C | 30% | 1022.5 hPa | - | - | - | - |
| 1777079506 | 26.11° C | 31% | 1022.6 hPa | - | - | - | - |
| 1777078605 | 26.11° C | 30% | 1022.6 hPa | - | - | - | - |
| 1777077705 | 26.67° C | 30% | 1022.7 hPa | - | - | - | - |
| 1777076805 | 26.67° C | 30% | 1022.7 hPa | - | - | - | - |
| 1777075905 | 26.67° C | 30% | 1022.8 hPa | - | - | - | - |
| 1777075005 | 26.67° C | 30% | 1022.8 hPa | - | - | - | - |
| 1777074105 | 27.22° C | 30% | 1023 hPa | - | - | - | - |
| 1777073208 | 27.22° C | 30% | 1022.9 hPa | - | - | - | - |
| 1777072304 | 27.22° C | 30% | 1023 hPa | - | - | - | - |
| 1777071404 | 27.22° C | 31% | 1023.2 hPa | - | - | - | - |
| 1777070504 | 26.67° C | 32% | 1023.1 hPa | - | - | - | - |
| 1777069600 | 26.11° C | 33% | 1023.1 hPa | - | - | - | - |
| 1777068700 | 26.11° C | 33% | 1023.3 hPa | - | - | - | - |
| 1777067800 | 26.67° C | 32% | 1023.4 hPa | - | - | - | - |
| 1777066900 | 26.67° C | 32% | 1023.4 hPa | - | - | - | - |
| 1777066000 | 26.11° C | 32% | 1023.4 hPa | - | - | - | - |
| 1777065100 | 26.11° C | 33% | 1023.3 hPa | - | - | - | - |
| 1777064200 | 26.11° C | 32% | 1023.4 hPa | - | - | - | - |
| 1777063300 | 26.11° C | 32% | 1023.3 hPa | - | - | - | - |
| 1777062399 | 26.11° C | 32% | 1023.2 hPa | - | - | - | - |
| 1777061499 | 25.56° C | 32% | 1023.3 hPa | - | - | - | - |
| 1777060599 | 25.56° C | 31% | 1023.3 hPa | - | - | - | - |
| 1777059699 | 25.56° C | 31% | 1023.3 hPa | - | - | - | - |
* Rain since midnight (hover to see other rain measurements)
** Current wind speed in m/s (hover to see current wind gust speed)